Regional Weather Roundup
Issued by NWS Newport/Morehead, NC

Current Version | Previous Version | Graphics & Text | Print | Product List | Glossary On
Versions: 1 2 3 4 5 6 7 8 9 10 11 12 13 14 15 16 17 18 19 20 21 22 23 24 25 26 27 28 29 30 31 32 33 34 35 36 37 38 39 40 41 42 43 44 45 46 47 48 49 50
000 ASUS42 KMHX 302225 RWRMHX WEATHER ROUNDUP FOR EASTERN NORTH CAROLINA NATIONAL WEATHER SERVICE NEWPORT/MOREHEAD CITY NC 600 PM EDT SUN AUG 30 2015 NOTE: "FAIR" INDICATES FEW OR NO CLOUDS BELOW 12,000 FEET WITH NO SIGNIFICANT WEATHER AND/OR OBSTRUCTIONS TO VISIBILITY NCZ015>017-031-032-045>047-102-103-302300- NORTH COAST CITY SKY/WX TMP DP RH WIND PRES REMARKS EDENTON CLOUDY 81 68 65 E3 30.13R ELIZABETH CITY CLOUDY 80 70 71 SE7 30.12R KITTY HAWK CLOUDY 79 70 73 CALM 30.11S MANTEO CLOUDY 78 71 80 E3 30.13R $$ NCZ045>047-081-094-103-104-302300- CENTRAL COAST CITY SKY/WX TMP DP RH WIND PRES REMARKS FRISCO PTSUNNY 80 73 79 VRB3 30.12R SWANQUARTER NOT AVBL $$ NCZ095-097-098-100-101-302300- SOUTHERN COAST CITY SKY/WX TMP DP RH WIND PRES REMARKS BEAUFORT CLOUDY 78 70 76 SW5 30.12S CEDAR ISLAND NOT AVBL JACKSONVILLE CLOUDY 77 69 76 SW3 30.13S PINEY ISLAND MOCLDY N/A N/A N/A N3 30.13R WILMINGTON CLOUDY 79 66 64 E3 30.14S $$ NCZ011>013-027>030-043-044-078>080-089-090>093-098-302300- COASTAL PLAIN CITY SKY/WX TMP DP RH WIND PRES REMARKS AHOSKIE CLOUDY 81 65 57 CALM 30.13R CLINTON CLOUDY 75 70 86 CALM 30.14F ELIZABETHTOWN CLOUDY 73 71 92 CALM 30.14F GOLDSBORO CLOUDY 81 68 63 S1 30.12S GREENVILLE CLOUDY 81 70 69 CALM 30.14S HAVELOCK CLOUDY 81 68 64 S5 30.13F KENANSVILLE N/A 76 68 75 CALM 30.15S KINSTON CLOUDY 81 68 65 CALM 30.14S NEW BERN CLOUDY 81 68 64 CALM 30.14S RICHLANDS CLOUDY 79 66 65 SW3 30.14R ROCKY MOUNT CLOUDY 84 63 49 S7 30.13R WASHINGTON PTSUNNY 82 65 56 SE3 30.13S WHITEVILLE LGT RAIN 73 69 88 CALM 30.13F $$ AMZ130-135-150-152-154-156-158-170-250-252-270-ANZ085-086-088-633-658-670-302300- MARINE OBSERVATIONS STATION/POSITION TIME TEMP WIND PRES WAVE SWELL AIR SEA DIR/SP/G HT/PER HT/PER (UTC) (F) (DEG/KT/KT) (MB) (FT/S) (FT/S) CHESAPEAKE LIGHT 2200 78 150/ 5/ 6 1020.4 64 E VA BEACH 2150 78 78 80/ 6/ 6 1019.2 3/10 3/10 DUCK NOT AVBL 2 E DUCK 2111 80 N/A 4/11 2/11 OREGON INLET NOT AVBL 13E OREGON INLT 2200 79 N/A 4/11 2/11 HATTERAS CG NOT AVBL DIAMOND BUOY 2150 79 81 10/ 2/ 4 1020.1 3/11 3/11 CAPE LOOKOUT 2200 78 220/ 3/ 3 1019.8 BEAUFORT LAB NOT AVBL 30 SE NEW RVR IN 2108 80 82 110/ 2/ 4 1020.4 30 SE NEW RVR IN 2125 82 N/A 4/10 2/11 27 SE WRIGHTSVLE 2200 77 82 CALM / 2 N/A 5 SE WRIGHTSVLE 2108 79 82 50/ 4/ 6 1020.4 225 S CAPE HAT 2150 83 85 110/ 8/ 10 1020.0 4/ 9 5/ 9 41 SE CHARLESTON 2150 75 84 50/ 12/ 14 1019.7 4/10 3/10 $$

USA.gov is the U.S. government's official web portal to all federal, state and local government web resources and services.